FW2498 Weather Reports


Display with metric or nautical units.
time (UTC)temp
F
wind
direction
speed
MPH
gust
MPH
rain 1hr
in
rain 24hr
in
rain mn
in
humidity
%
barometer
mb
20260903031513 76 106 16.0 22.0 0.00 0.00 0.00 62 1003.6
20260903030013 77 114 20.0 28.0 0.00 0.00 0.00 61 1003.6
20260903024512 77 102 18.0 25.0 0.00 0.00 0.00 61 1003.7
20260903023019 77 116 19.0 25.0 0.00 0.00 0.00 60 1003.4
20260903021518 78 115 16.0 24.0 0.00 0.00 0.00 58 1003.5
20260903020030 79 101 14.0 21.0 0.00 0.00 0.00 56 1003.5
20260903014510 80 109 16.0 22.0 0.00 0.00 0.00 54 1003.4
20260903013011 81 106 15.0 22.0 0.00 0.00 0.00 53 1003.4
20260903011507 81 119 17.0 25.0 0.00 0.00 0.00 51 1003.6
20260903010009 82 115 18.0 26.0 0.00 0.00 0.00 50 1003.3
20260903004505 82 117 18.0 27.0 0.00 0.00 0.00 49 1003.2
20260903003004 83 118 21.0 28.0 0.00 0.00 0.00 48 1003.3
20260903001504 84 110 21.0 32.0 0.00 0.00 0.00 47 1003.2
20260903000002 85 123 24.0 30.0 0.00 0.00 0.00 45 1003.2
20260902234501 85 115 20.0 27.0 0.00 0.00 0.00 44 1003.3
20260902233103 86 119 24.0 31.0 0.00 0.00 0.00 44 1003.2
20260902231600 86 109 20.0 29.0 0.00 0.00 0.00 44 1003.3
20260902230057 85 129 21.0 25.0 0.00 0.00 0.00 46 1003.5
20260902224554 85 123 23.0 28.0 0.00 0.00 0.00 46 1003.7
20260902223052 85 109 18.0 23.0 0.00 0.00 0.00 45 1003.7
20260902221609 86 116 20.0 31.0 0.00 0.00 0.00 42 1003.9
20260902220059 86 116 22.0 28.0 0.00 0.00 0.00 44 1004.0
20260902214548 86 129 22.0 29.0 0.00 0.00 0.00 42 1003.9
20260902213052 85 146 22.0 32.0 0.00 0.00 0.00 43 1004.1
20260902211552 85 127 18.0 31.0 0.00 0.00 0.00 45 1004.4
20260902210040 84 119 21.0 28.0 0.00 0.00 0.00 46 1004.7
20260902204551 85 109 23.0 30.0 0.00 0.00 0.00 44 1004.9
20260902203034 85 126 21.0 27.0 0.00 0.00 0.00 47 1005.2
20260902201538 84 153 17.0 29.0 0.00 0.00 0.00 47 1005.5
20260902200027 84 127 17.0 29.0 0.00 0.00 0.00 48 1005.8
20260902194532 84 145 18.0 24.0 0.00 0.00 0.00 48 1005.8
20260902193020 84 140 20.0 28.0 0.00 0.00 0.00 49 1005.9
20260902191520 82 112 18.0 27.0 0.00 0.00 0.00 51 1006.1
20260902190015 82 113 18.0 27.0 0.00 0.00 0.00 52 1006.4
20260902184511 82 118 20.0 28.0 0.00 0.00 0.00 53 1006.6
20260902183009 81 139 17.0 30.0 0.00 0.00 0.00 54 1006.8
20260902181505 80 122 19.0 29.0 0.00 0.00 0.00 55 1007.1
20260902180001 79 133 21.0 27.0 0.00 0.00 0.00 58 1007.5
20260902174559 78 170 17.0 27.0 0.00 0.00 0.00 59 1007.5
20260902173057 77 120 21.0 28.0 0.00 0.00 0.00 59 1007.8
20260902171605 77 113 21.0 28.0 0.00 0.00 0.00 59 1007.9
20260902170047 76 118 22.0 29.0 0.00 0.00 0.00 58 1007.9
20260902164555 75 118 17.0 25.0 0.00 0.00 0.00 59 1008.0
20260902163039 74 117 16.0 22.0 0.00 0.00 0.00 59 1008.0
20260902161536 73 137 15.0 24.0 0.00 0.00 0.00 60 1008.4
20260902160036 73 135 18.0 23.0 0.00 0.00 0.00 60 1008.4
20260902154544 72 117 11.0 18.0 0.00 0.00 0.00 61 1008.6
20260902153023 70 147 11.0 20.0 0.00 0.00 0.00 61 1008.8
20260902151526 69 135 13.0 19.0 0.00 0.00 0.00 62 1008.7
20260902150016 68 147 14.0 19.0 0.00 0.00 0.00 62 1008.9
20260902144510 67 133 15.0 23.0 0.00 0.00 0.00 62 1009.1
20260902143004 67 161 11.0 15.0 0.00 0.00 0.00 61 1009.3
20260902141600 67 139 13.0 16.0 0.00 0.00 0.00 62 1009.1
20260902140056 65 120 11.0 14.0 0.00 0.00 0.00 63 1009.2
20260902134553 64 137 10.0 14.0 0.00 0.00 0.00 65 1009.5
20260902133049 63 102 9.0 12.0 0.00 0.00 0.00 66 1009.3
20260902131603 62 96 1.0 5.0 0.00 0.00 0.00 68 1009.3
20260902130051 61 144 4.0 10.0 0.00 0.00 0.00 70 1009.3
20260902124536 60 106 3.0 9.0 0.00 0.00 0.00 71 1009.2
20260902123034 60 92 6.0 12.0 0.00 0.00 0.00 72 1009.2
20260902121532 59 75 3.0 8.0 0.00 0.00 0.00 73 1009.1
20260902120030 58 97 3.0 6.0 0.00 0.00 0.00 74 1009.3
20260902114529 58 100 0.0 3.0 0.00 0.00 0.00 74 1009.3
20260902113024 59 131 6.0 9.0 0.00 0.00 0.00 73 1009.3
20260902111525 60 92 8.0 12.0 0.00 0.00 0.00 71 1009.2
20260902110032 61 84 7.0 11.0 0.00 0.00 0.00 70 1009.4
20260902104533 60 77 5.0 8.0 0.00 0.00 0.00 71 1009.5
20260902103019 60 102 3.0 7.0 0.00 0.00 0.00 72 1009.7
20260902101518 60 135 6.0 10.0 0.00 0.00 0.00 72 1009.6
20260902100017 60 130 7.0 10.0 0.00 0.00 0.00 72 1009.6
20260902094513 61 130 6.0 9.0 0.00 0.00 0.00 70 1009.7
20260902093017 61 119 6.0 9.0 0.00 0.00 0.00 70 1009.5
20260902091509 62 98 6.0 9.0 0.00 0.00 0.00 69 1009.7
20260902090007 62 108 3.0 5.0 0.00 0.00 0.00 68 1009.7
20260902084504 62 125 3.0 5.0 0.00 0.00 0.00 67 1009.8
20260902083001 63 134 3.0 4.0 0.00 0.00 0.00 66 1009.6
20260902081600 64 117 2.0 5.0 0.00 0.00 0.00 64 1009.7
20260902080059 64 131 2.0 5.0 0.00 0.00 0.00 63 1009.8
20260902074556 65 147 2.0 6.0 0.00 0.00 0.00 62 1009.8
20260902073055 65 150 1.0 5.0 0.00 0.00 0.00 63 1010.0
20260902071554 64 79 1.0 5.0 0.00 0.00 0.00 63 1010.1
20260902070052 64 92 3.0 5.0 0.00 0.00 0.00 62 1010.0
20260902064552 64 104 4.0 10.0 0.00 0.00 0.00 62 1010.1
20260902063104 65 117 4.0 9.0 0.00 0.00 0.00 61 1010.1
20260902061547 65 125 5.0 9.0 0.00 0.00 0.00 61 1010.2
20260902060054 65 130 6.0 9.0 0.00 0.00 0.00 60 1010.2
20260902054544 65 126 7.0 10.0 0.00 0.00 0.00 60 1010.1
20260902053044 64 138 6.0 8.0 0.00 0.00 0.00 59 1010.2
20260902051544 65 126 4.0 7.0 0.00 0.00 0.00 57 1010.4
20260902050043 65 110 5.0 7.0 0.00 0.00 0.00 56 1010.4
20260902044543 66 106 4.0 6.0 0.00 0.00 0.00 55 1010.6
20260902043048 66 113 3.0 5.0 0.00 0.00 0.00 54 1010.6
20260902041549 67 110 4.0 8.0 0.00 0.00 0.00 53 1010.7
20260902040041 67 89 5.0 9.0 0.00 0.00 0.00 52 1010.7
20260902034544 67 98 3.0 6.0 0.00 0.00 0.00 50 1010.7
20260902033049 67 86 5.0 7.0 0.00 0.00 0.00 49 1010.7